Location: 相模原市立博物館
(35.5593°N, 139.3931°E)
Time: 13:11:29
(UTC+09:00)

Envisat - Pass Details

Date: 01 November 2021
Orbit: 764 x 766 km, 98.2° (Epoch: 30 November)

Event Time Altitude Azimuth Distance (km) Brightness Sun altitude
Rises 05:01:10 0° 8° (N) 3,236 6.2 -13.3°
Reaches altitude 10° 05:03:29 10° 5° (N) 2,306 5.4 -12.8°
Maximum altitude 05:08:30 62° 285° (WNW) 857 3.0 -11.8°
Drops below altitude 10° 05:13:28 10° 206° (SSW) 2,291 5.3 -10.8°
Sets 05:15:47 0° 203° (SSW) 3,213 6.1 -10.4°
